HST
1 20580U 90037B   24147.35298597  .00005510  00000-0  25819-3 0  9999
2 20580  28.4669 131.3868 0002699 155.3883 204.6839 15.17472986673717
ISS (ZARYA)
1 25544U 98067A   24148.21684019  .00061977  00000-0  10641-2 0  9994
2 25544  51.6387  59.2528 0005857 237.6488 284.2921 15.50547023455291
CXO
1 25867U 99040B   24149.35049423  .00000720  00000-0  00000-0 0  9999
2 25867  40.6804 155.7827 8908050 295.0223 359.9343  0.37806773 14484